Back to catalog

STARLINK-36612

AliveCommunicationsSSO
NORAD 67580·PAYLOAD·🇺🇸 United States

Launched Jan 25, 2026 from Vandenberg Space Force Base

Loading…

Next Passes (next 24 hours)

TLE

FreshSource: CelesTrak SupGP

Epoch: Sep 14, 2026, 20:58 UTC

1 67580C 26016V   26257.87409722 -.00022420  00000+0 -69613-3 0  2578
2 67580  97.2848 316.6802 0000983  86.9522 223.6074 15.33443476    19

Track STARLINK-36612 in real time with AllMySat

Download on the App Store